Regional Weather Roundup
Issued by NWS Sterling, VA

Home | Current Version | Previous Version | Text Only | Print | Product List | Glossary Off
Versions: 1 2 3 4 5 6 7 8 9 10 11 12 13 14 15 16 17 18 19 20 21 22 23 24 25 26 27 28 29 30 31 32 33 34 35 36 37 38 39 40 41 42 43 44 45 46 47 48 49 50

000
ASUS41 KLWX 030510
RWRLWX

REGIONAL WEATHER ROUNDUP
NATIONAL WEATHER SERVICE BALTIMORE MD/WASHINGTON DC
1200 AM EST TUE MAR 03 2015

Note: "FAIR" indicates few or no clouds below 12,000 feet
with no significant weather and/or obstructions to visibility.
 TC=TEMPERATURE CELSIUS

 * =Non NWS site. Station does not report precipitation (e.g. rain,
    snow, etc.), thunder, or fog.

DCZ001-MDZ009-015-VAZ040>042-051-053>054-030600-
WASHINGTON METRO

CITY           SKY/WX    TMP DP  RH WIND       PRES   REMARKS
WASHINGTON NAT FAIR      33  15  47 N8        30.44F WCI  26
DULLES         FAIR      27  15  61 NE3       30.42S
ANDREWS AFB    FAIR      29  15  57 N12       30.40F WCI  19
FT BELVOIR     FAIR      28  18  66 NW5       30.42F
QUANTICO       FAIR      32  17  54 NE8       30.43F WCI  25
COLLEGE PARK*  FAIR      27  21  80 CALM      30.43S
LEESBURG*      FAIR      30  19  64 N7        30.43S
MANASSAS*      FAIR      27  19  74 N6        30.43S
GAITHERSBURG*  FAIR      25  12  58 NW3       30.44F

$$

MDZ006>007-011-014-030600-
BALTIMORE METRO

CITY           SKY/WX    TMP DP  RH WIND       PRES   REMARKS
BWI AIRPORT    FAIR      27  14  58 W3        30.42S
MD SCIENCE CTR   N/A      1 N/A N/A MISG      30.42S
MARTIN STATE   FAIR      30  18  59 W5        30.44S
ANNAPOLIS      FAIR      29  17  61 NW3       30.43F
FORT MEADE*    FAIR      27  19  74 CALM      30.45S

$$

MDZ012-015-019>023-030600-
MARYLAND EASTERN SHORE

CITY           SKY/WX    TMP DP  RH WIND       PRES   REMARKS
OCEAN CITY     FAIR      23  20  88 NW3       30.41S
SALISBURY      FAIR      31  18  58 NW5       30.41S
BAY BRIDGE AP*   N/A     30  16  55 NW6       30.43S
CAMBRIDGE*     FAIR      34  19  55 N8        30.42S WCI  27
EASTON*        FAIR      30  19  64 N5        30.46F

$$

MDZ017>025-030600-
SOUTHERN MARYLAND

CITY           SKY/WX    TMP DP  RH WIND       PRES   REMARKS
PATUXENT RIVER FAIR      32  16  51 N10       30.41F WCI  24
ST INIGOES     NOT AVBL
LEONARDTOWN*   FAIR      32  16  51 N5        30.42F

$$

MDZ003>005-030600-
NORTH CENTRAL MARYLAND

CITY           SKY/WX    TMP DP  RH WIND       PRES   REMARKS
FREDERICK*     FAIR      28  12  50 CALM      30.45F
HAGERSTOWN APT FAIR      26  13  57 CALM      30.40F
WESTMINSTER*   FAIR      25  14  63 W6        30.38F

$$

MDZ501>502-030600-
WESTERN MARYLAND

CITY           SKY/WX    TMP DP  RH WIND       PRES   REMARKS
OAKLAND*       FAIR      18  18 100 CALM      30.25F
CUMBERLAND*    NOT AVBL

$$

VAZ025>031-030600-
SHENANDOAH VALLEY

CITY           SKY/WX    TMP DP  RH WIND       PRES   REMARKS
WINCHESTER*    FAIR      27  12  54 CALM      30.40S
FRONT ROYAL*   FAIR      28  16  59 E3        30.39F
LURAY*         FAIR      28  19  69 E5        30.37F
NEW MARKET*    FAIR      25  16  67 CALM      30.37F
STAUNTON*      FAIR      26  16  65 CALM      30.37S
WAYNESBORO*    FAIR      28  15  58 CALM      30.35S

$$

WVZ021-048>050-054>055-030600-
EASTERN WEST VIRGINIA PANHANDLE

CITY           SKY/WX    TMP DP  RH WIND       PRES   REMARKS
MARTINSBURG    FAIR      27  14  58 NW6       30.41F
PETERSBURG*    NOT AVBL

$$

VAZ036>039-050-030600-
CENTRAL FOOTHILLS

CITY           SKY/WX    TMP DP  RH WIND       PRES   REMARKS
CHARLOTTESVILL FAIR      32  16  51 CALM      30.37F
CULPEPER*      FAIR      28  18  64 NE3       30.40F
ORANGE*        FAIR      30  19  64 CALM      30.41S
GORDONSVILLE*  FAIR      27  19  71 CALM      30.39F
WARRENTON*     FAIR      28  21  76 NE5       30.40F

$$

VAZ055>057-030600-
NORTH AND CENTRAL PIEDMONT

CITY           SKY/WX    TMP DP  RH WIND       PRES   REMARKS
FREDERICKSBRG* FAIR      33  18  53 N6        30.40F
STAFFORD*      FAIR      31  13  48 N9        30.44F WCI  22

$$

NCZ024-NYZ072-PAZ021-071-VAZ022-071-030600-
OTHER REGIONAL OBSERVATIONS

CITY           SKY/WX    TMP DP  RH WIND       PRES   REMARKS
NEW YORK CITY  FAIR      27   9  46 VRB6      30.39R
PHILADELPHIA   FAIR      30  14  51 W8        30.40S WCI  22
PITTSBURGH     FAIR      17  12  80 CALM      30.36F
ROANOKE        FAIR      36  16  44 NE6       30.37F
RICHMOND       CLOUDY    33  18  53 NE6       30.41S
RALEIGH        FAIR      37  27  67 NE3       30.35S

$$

ANZ530>537-030600-
MARINE OBSERVATIONS

STATION/POSITION TIME  TEMP    WIND        PRES
                       AIR SEA DIR/SP/G
                 (UTC) (F)     (DEG/KT/KT) (MB)
THOMAS PT LIGHT  0500   31 32  300/  6/  7 1031.3F
BALT KEY BRIDGE  0400   32     270/  6/  7 1030.5R
COVE POINT       0400   33     360/ 13/ 15 1030.0R
LEWISETTA        0400   35 33   20/  6/ 10 1029.4R
SOLOMONS ISLAND  0400      33                N/A

$$




USA.gov is the U.S. government's official web portal to all federal, state and local government web resources and services.